EWG3C EDDN-EDDP

Flight info

Callsign EWG3C
Flight time 0h 25m
Altitude 27000
Route ERETO1G/28 ERETO DCT TABAT T952 GOXLI GOXLI1R
Aircraft A320/M-SDE3FGHIRWY/LB1

Departure

Time 2026-05-05 18:27
Airport Nuremberg Airport (EDDN)

Arrival

Time 2026-05-05 18:53
Airport Leipzig/Halle Airport (EDDP)
Time Latitude Longitude Altitude Speed Heading
2026-05-05 18:14 49.49528 11.07660 1022 ft 0 kts 188°
2026-05-05 18:22 49.49534 11.07661 1024 ft 3 kts 188°
2026-05-05 18:22 49.49551 11.07665 1024 ft 2 kts 188°
2026-05-05 18:22 49.49568 11.07669 1026 ft 2 kts 188°
2026-05-05 18:23 49.49583 11.07665 1025 ft 2 kts 137°
2026-05-05 18:23 49.49594 11.07646 1024 ft 2 kts 117°
2026-05-05 18:23 49.49597 11.07640 1025 ft 0 kts 103°
2026-05-05 18:24 49.49589 11.07713 1024 ft 10 kts 98°
2026-05-05 18:24 49.49580 11.07813 1027 ft 9 kts 97°
2026-05-05 18:25 49.49571 11.07922 1026 ft 18 kts 98°
2026-05-05 18:25 49.49565 11.07989 1028 ft 20 kts 98°
2026-05-05 18:25 49.49535 11.08298 1029 ft 10 kts 90°
2026-05-05 18:25 49.49567 11.08352 1031 ft 7 kts 19°
2026-05-05 18:26 49.49623 11.08393 1033 ft 9 kts 46°
2026-05-05 18:26 49.49708 11.08559 1036 ft 23 kts 34°
2026-05-05 18:26 49.49794 11.08533 1037 ft 12 kts 315°
2026-05-05 18:26 49.49816 11.08373 1035 ft 22 kts 278°
2026-05-05 18:27 49.49870 11.07814 1028 ft 89 kts 279°
2026-05-05 18:27 49.49993 11.06568 1024 ft 144 kts 278°
2026-05-05 18:27 49.50159 11.04908 1395 ft 163 kts 279°
2026-05-05 18:27 49.50337 11.03135 2050 ft 173 kts 279°
2026-05-05 18:28 49.50715 10.99202 3075 ft 202 kts 277°
2026-05-05 18:28 49.50928 10.96960 3443 ft 223 kts 277°
2026-05-05 18:28 49.51252 10.94531 3954 ft 245 kts 291°
2026-05-05 18:29 49.52418 10.92511 4653 ft 266 kts 327°
2026-05-05 18:29 49.54239 10.91710 5536 ft 280 kts 351°
2026-05-05 18:29 49.56218 10.91682 6417 ft 289 kts 360°
2026-05-05 18:29 49.58242 10.91947 7285 ft 294 kts
2026-05-05 18:30 49.60297 10.92266 8158 ft 299 kts
2026-05-05 18:30 49.62387 10.92536 9037 ft 303 kts
2026-05-05 18:30 49.64513 10.92731 9895 ft 308 kts 360°
2026-05-05 18:30 49.66689 10.92865 10311 ft 329 kts
2026-05-05 18:31 49.69037 10.93428 10589 ft 355 kts 14°
2026-05-05 18:31 49.71385 10.94910 10975 ft 372 kts 30°
2026-05-05 18:31 49.73487 10.97284 11661 ft 377 kts 42°
2026-05-05 18:31 49.75489 10.99937 12444 ft 381 kts 42°
2026-05-05 18:32 49.77511 11.02618 13226 ft 384 kts 42°
2026-05-05 18:32 49.79548 11.05324 13954 ft 387 kts 42°
2026-05-05 18:32 49.80911 11.07133 14401 ft 390 kts 42°
2026-05-05 18:32 49.82897 11.10005 15065 ft 392 kts 50°
2026-05-05 18:33 49.85006 11.14578 15715 ft 400 kts 64°
2026-05-05 18:33 49.86418 11.18375 15924 ft 418 kts 54°
2026-05-05 18:33 49.88618 11.21454 16057 ft 439 kts 32°
2026-05-05 18:33 49.91513 11.23114 16333 ft 451 kts 10°
2026-05-05 18:34 49.93619 11.23574 16620 ft 454 kts
2026-05-05 18:34 49.96766 11.24228 17097 ft 457 kts
2026-05-05 18:34 49.99917 11.24956 17567 ft 460 kts
2026-05-05 18:34 50.03088 11.25768 18024 ft 463 kts 10°
2026-05-05 18:35 50.06271 11.26645 18420 ft 465 kts 11°
2026-05-05 18:35 50.09465 11.27553 18811 ft 467 kts 11°
2026-05-05 18:35 50.12663 11.28463 19235 ft 467 kts 11°
2026-05-05 18:35 50.15826 11.29348 19629 ft 468 kts 11°
2026-05-05 18:36 50.19045 11.30236 19980 ft 470 kts 10°
2026-05-05 18:36 50.22270 11.31119 20316 ft 472 kts 10°
2026-05-05 18:36 50.25510 11.32000 20644 ft 474 kts 10°
2026-05-05 18:36 50.28768 11.32883 20965 ft 476 kts 10°
2026-05-05 18:37 50.32033 11.33772 21282 ft 478 kts 10°
2026-05-05 18:37 50.35320 11.34669 21544 ft 481 kts 10°
2026-05-05 18:37 50.38624 11.35570 21809 ft 483 kts 10°
2026-05-05 18:37 50.41943 11.36481 22079 ft 485 kts 10°
2026-05-05 18:38 50.45279 11.37401 22352 ft 487 kts 10°
2026-05-05 18:38 50.48624 11.38325 22612 ft 489 kts 10°
2026-05-05 18:38 50.51982 11.39253 22858 ft 491 kts 10°
2026-05-05 18:38 50.55352 11.40184 23104 ft 492 kts 10°
2026-05-05 18:39 50.58730 11.41120 23320 ft 494 kts 10°
2026-05-05 18:39 50.62114 11.42061 23497 ft 495 kts 10°
2026-05-05 18:39 50.65519 11.43010 23659 ft 496 kts 10°
2026-05-05 18:39 50.68924 11.43957 23810 ft 497 kts 10°
2026-05-05 18:40 50.72315 11.45039 23915 ft 496 kts 14°
2026-05-05 18:40 50.75643 11.46327 23299 ft 488 kts 14°
2026-05-05 18:40 50.78908 11.47623 22595 ft 478 kts 14°
2026-05-05 18:40 50.81996 11.48884 22128 ft 451 kts 14°
2026-05-05 18:41 50.84989 11.50109 21185 ft 441 kts 14°
2026-05-05 18:41 50.87940 11.51316 20643 ft 435 kts 14°
2026-05-05 18:41 50.90858 11.52509 20082 ft 430 kts 14°
2026-05-05 18:41 50.93740 11.53687 19526 ft 426 kts 14°
2026-05-05 18:42 50.96596 11.54855 18994 ft 422 kts 14°
2026-05-05 18:42 50.99432 11.56014 18314 ft 417 kts 14°
2026-05-05 18:42 51.02198 11.57150 17550 ft 404 kts 14°
2026-05-05 18:42 51.04878 11.58251 16766 ft 392 kts 15°
2026-05-05 18:43 51.07489 11.59314 15997 ft 382 kts 15°
2026-05-05 18:43 51.10001 11.60326 15258 ft 373 kts 15°
2026-05-05 18:43 51.12493 11.61319 14527 ft 365 kts 15°
2026-05-05 18:43 51.14947 11.62286 13809 ft 360 kts 15°
2026-05-05 18:44 51.17361 11.63226 13045 ft 355 kts 14°
2026-05-05 18:44 51.19749 11.64156 12275 ft 354 kts 14°
2026-05-05 18:44 51.22152 11.65100 11631 ft 356 kts 14°
2026-05-05 18:44 51.24529 11.66047 10960 ft 346 kts 14°
2026-05-05 18:45 51.26833 11.66985 10229 ft 337 kts 15°
2026-05-05 18:45 51.29085 11.67901 9487 ft 331 kts 15°
2026-05-05 18:45 51.31293 11.68793 8700 ft 324 kts 14°
2026-05-05 18:45 51.33455 11.69650 7931 ft 316 kts 14°
2026-05-05 18:46 51.35577 11.70458 7177 ft 309 kts 14°
2026-05-05 18:46 51.37652 11.71236 6447 ft 303 kts 15°
2026-05-05 18:46 51.39687 11.71990 5691 ft 297 kts 15°
2026-05-05 18:46 51.41662 11.72709 4943 ft 291 kts 15°
2026-05-05 18:47 51.43625 11.73413 4186 ft 286 kts 15°
2026-05-05 18:47 51.45433 11.74574 3428 ft 277 kts 37°
2026-05-05 18:47 51.46611 11.76829 3094 ft 255 kts 67°
2026-05-05 18:47 51.46887 11.79555 3000 ft 248 kts 96°
2026-05-05 18:48 51.46247 11.82113 3009 ft 253 kts 126°
2026-05-05 18:48 51.44911 11.83995 3015 ft 260 kts 142°
2026-05-05 18:48 51.43394 11.85585 3010 ft 260 kts 144°
2026-05-05 18:48 51.41895 11.87184 3006 ft 257 kts 135°
2026-05-05 18:49 51.40772 11.89358 3009 ft 252 kts 117°
2026-05-05 18:49 51.40097 11.91922 3009 ft 249 kts 102°
2026-05-05 18:49 51.39911 11.94658 3009 ft 247 kts 86°
2026-05-05 18:49 51.40040 11.97407 3010 ft 248 kts 84°
2026-05-05 18:50 51.40179 12.00165 2895 ft 248 kts 84°
2026-05-05 18:50 51.40315 12.02909 2607 ft 246 kts 84°
2026-05-05 18:50 51.40446 12.05597 2303 ft 245 kts 85°
2026-05-05 18:50 51.40575 12.08268 1977 ft 235 kts 84°
2026-05-05 18:51 51.40696 12.10786 1682 ft 220 kts 83°
2026-05-05 18:51 51.40808 12.13129 1388 ft 200 kts 84°
2026-05-05 18:51 51.40908 12.15228 1156 ft 180 kts 84°
2026-05-05 18:51 51.40998 12.17116 915 ft 159 kts 84°
2026-05-05 18:52 51.41078 12.18796 676 ft 144 kts 83°
2026-05-05 18:52 51.41148 12.20338 484 ft 135 kts 82°
2026-05-05 18:52 51.41219 12.21713 453 ft 106 kts 86°
2026-05-05 18:52 51.41261 12.22644 460 ft 64 kts 86°
2026-05-05 18:53 51.41288 12.23124 465 ft 17 kts 82°
2026-05-05 18:53 51.41309 12.23225 464 ft 9 kts 47°
2026-05-05 18:53 51.41377 12.23247 463 ft 12 kts
2026-05-05 18:53 51.41479 12.23235 461 ft 16 kts 355°
2026-05-05 18:54 51.41590 12.23203 464 ft 16 kts 323°
2026-05-05 18:54 51.41635 12.23026 464 ft 23 kts 286°
2026-05-05 18:54 51.41684 12.22745 464 ft 27 kts 285°
2026-05-05 18:54 51.41735 12.22446 457 ft 25 kts 285°
2026-05-05 18:55 51.41776 12.22200 450 ft 18 kts 285°
2026-05-05 18:55 51.41803 12.22039 447 ft 10 kts 284°
2026-05-05 18:55 51.41832 12.21999 438 ft 6 kts
2026-05-05 18:55 51.41879 12.22021 430 ft 9 kts 15°
2026-05-05 18:56 51.41906 12.22033 440 ft 0 kts 15°